Retour au catalogue

FENGYUN 1C DEB

ActifSSO
NORAD 33646·DEBRIS·🇨🇳 China

Lancé May 10, 1999 depuis Taiyuan Satellite Launch Center

Loading…

Prochains Passages (prochaines 24 heures)

TLE

VieillissantSource: Space-Track

Époque: Sep 7, 2026, 13:36 UTC

1 33646U 99025DEF 26250.56704202  .00001167  00000-0  71052-3 0  9991
2 33646  98.5946 156.5966 0110206 124.5025 236.6610 14.04983309758210

Suivez FENGYUN 1C DEB en temps réel avec AllMySat

Download on the App Store